Bodensee (Kressbronn): 6,7°C  -  Teich der Wetterzentrale Bad Schussenried: 5,0°C  
01.03.2021Höhe
ü. NN
ZeitTemperatur (°C)Nieder-
schlag
Luft-
feuchte
Luft-
druck
Wind
StationaktuellMinimumMaximumaktuellMaximum
Aldingen654 m05:46-5,6-5,6 (05:46)-1,5 (15:10)0,0 l/m²88%1032,90,0 km/h (0 Bft) O-NO27,8 km/h (4 Bft) O-SO (13:39)
Allmendingen541 m05:45-5,5-5,5 (04:55)-3,3 (15:40)0,0 l/m²89%1032,50,0 km/h (0 Bft) O-NO38,6 km/h (5 Bft) O-NO (14:25)
Altshausen574 m05:45-2,5-2,5 (05:45)0,1 (01:22)0,0 l/m²80%1030,20,0 km/h (0 Bft) N-NO11,3 km/h (2 Bft) N-NO (01:28)
Amstetten-Reutti663 m05:45-2,0-2,0 (05:45)0,3 (15:45)0,0 l/m²90%1032,511,3 km/h (2 Bft) O-SO38,6 km/h (5 Bft) O-NO (14:40)
Amtzell564 m05:49-2,1-2,1 (04:15)0,4 (00:03)0,0 l/m²88%1033,13,2 km/h (1 Bft) N14,5 km/h (3 Bft) NO (04:50)
Amtzell-Grenis677 m05:45-2,1-2,2 (05:45)0,9 (00:00)0,0 l/m²68%1032,94,8 km/h (1 Bft) O-NO14,5 km/h (3 Bft) N-NO (03:50)
Aulendorf570 m05:45-0,7-0,7 (05:41)0,9 (01:41)0,0 l/m²71%1031,16,4 km/h (2 Bft) NO16,1 km/h (3 Bft) N-NO (04:17)
Bachhagel489 m05:45-4,2-4,9 (05:32)-2,6 (00:03)0,0 l/m²93%1037,11,4 km/h (1 Bft) SO3,2 km/h (1 Bft) SO (01:59)
Bad Krozingen233 m05:45-0,5-0,7 (07:35)2,4 (16:35)0,0 l/m²91%1032,30,0 km/h (0 Bft) SO17,3 km/h (3 Bft) N-NW (16:45)
Bad Krozingen-Hausen199 m05:45-1,6-1,9 (05:05)0,6 (15:40)0,0 l/m²93%1031,01,8 km/h (1 Bft) W-NW18,3 km/h (3 Bft) O-NO (14:25)
Bad Krozingen-Tunsel229 m05:45-1,4-1,8 (06:25)1,8 (16:05)0,0 l/m²92%1030,21,9 km/h (1 Bft) W-SW19,1 km/h (3 Bft) NO (17:15)
Bad Saulgau595 m05:45-2,1-2,1 (05:30)-0,3 (15:00)0,0 l/m²90%1030,70,0 km/h (0 Bft) N25,7 km/h (4 Bft) O (12:35)
Bad Saulgau, Mannsgrab588 m05:48-2,2-3,4 (02:00)0,3 (00:49)0,0 l/m²85%1033,44,7 km/h (1 Bft) NW11,2 km/h (2 Bft) N-NO (05:25)
Bad Saulgau, SFZ Kälberweide594 m05:44-1,7-2,1 (05:08)-0,8 (02:42)0,0 l/m²89%1032,86,5 km/h (2 Bft) NW6,5 km/h (2 Bft) N (04:57)
Bad Saulgau-Lampertsweiler627 m05:45-0,3-1,2 (03:45)2,9 (00:00)0,0 l/m²82%1034,00,0 km/h (0 Bft) N0,0 km/h (0 Bft) N (00:00)
Bad Schussenried572 m05:45-1,4-1,4 (05:40)0,8 (00:00)0,0 l/m²90%1030,24,8 km/h (1 Bft) N-NW9,7 km/h (2 Bft) N (03:05)
Baindt462 m05:45-2,7-2,8 (05:03)1,2 (02:20)0,0 l/m²89%1032,91,4 km/h (1 Bft) O4,8 km/h (1 Bft) O (04:10)
Bergatreute615 m05:45-1,4-1,4 (02:10)-0,2 (00:45)0,0 l/m²90%1029,50,0 km/h (0 Bft) NO0,0 km/h (0 Bft) NO (00:00)
Biberach (Riss), Boehringer533 m06:40-2,5-2,6 (06:40)0,4 (00:00)0,0 l/m²93%1031,03,6 km/h (1 Bft) N-NW9,7 km/h (2 Bft) N-NW (04:50)
Biberach (Riss), Realschule553 m05:45-1,7-1,7 (05:40)0,8 (00:00)0,0 l/m²89%1032,70,0 km/h (0 Bft) NO6,4 km/h (2 Bft) N-NO (03:50)
Burgrieden523 m05:45-2,2-2,2 (05:35)0,4 (00:00)0,0 l/m²86%1032,00,0 km/h (0 Bft) NO0,0 km/h (0 Bft) N (00:00)
Burgrieden-Hochstetten510 m05:45-4,2-4,2 (05:40)-0,8 (15:15)0,0 l/m²93%1032,51,6 km/h (1 Bft) O-SO30,6 km/h (5 Bft) O (12:30)
Donauwörth411 m05:44-1,7-1,8 (05:03)0,4 (00:00)0,0 l/m²86%1032,90,0 km/h (0 Bft) N-NW0,0 km/h (0 Bft) N-NW (00:00)
Ebersbach579 m05:45-1,2-1,2 (05:40)1,1 (00:00)0,0 l/m²87%1032,50,0 km/h (0 Bft) NO14,5 km/h (3 Bft) NO (03:45)
Ebersbach-Boos605 m05:45-0,6-0,9 (05:20)1,6 (00:00)0,0 l/m²88%1032,016,1 km/h (3 Bft) O-NO20,9 km/h (4 Bft) O-NO (04:45)
Ebersbach-Menzenweiler661 m05:45-1,1-1,1 (05:35)1,9 (00:00)0,0 l/m²90%1032,216,1 km/h (3 Bft) NO24,1 km/h (4 Bft) O-NO (00:30)
Ehingen535 m02:10-3,3-3,5 (01:35)-2,7 (00:00)0,0 l/m²85%1033,10,0 km/h (0 Bft) W4,8 km/h (1 Bft) W (01:35)
Erlenmoos645 m05:45-1,1-1,1 (04:55)1,6 (01:05)0,0 l/m²79%1031,63,2 km/h (1 Bft) O-NO9,7 km/h (2 Bft) O (00:40)
Ertingen569 m05:45-0,8-0,8 (05:40)0,6 (02:30)0,0 l/m²86%1032,06,4 km/h (2 Bft) N11,3 km/h (2 Bft) N (04:10)
Friedrichshafen405 m05:45-0,6-0,6 (05:45)2,8 (14:40)0,0 l/m²86%1032,34,8 km/h (1 Bft) NO22,5 km/h (4 Bft) NO (08:35)
Günzburg443 m05:45-3,7-3,7 (05:05)-1,7 (00:00)0,0 l/m²89%1030,30,0 km/h (0 Bft) NO0,0 km/h (0 Bft) NO (00:00)
Hochdorf-Appendorf537 m05:45-4,3-4,9 (02:30)-3,0 (00:50)0,0 l/m²72%1032,03,2 km/h (1 Bft) N-NW6,4 km/h (2 Bft) O-NO (01:50)
Höchsten802 m05:45-1,1-1,3 (05:25)1,1 (00:00)0,0 l/m²87%1029,617,7 km/h (3 Bft) N-NO25,7 km/h (4 Bft) N-NO (00:00)
Horgenzell618 m05:45-0,9-0,9 (05:45)1,7 (00:00)0,0 l/m²85%1029,96,4 km/h (2 Bft) N-NW16,1 km/h (3 Bft) NO (01:00)
Hoßkirch632 m05:45-3,3-3,3 (05:05)0,9 (00:20)0,0 l/m²89%1030,70,0 km/h (0 Bft) O-NO12,9 km/h (3 Bft) O-NO (01:30)
Hüfingen682 m05:45-5,9-5,9 (05:33)-2,9 (00:00)0,0 l/m²91%1029,20,0 km/h (0 Bft) SW4,7 km/h (1 Bft) SW (00:05)
Immendingen750 m05:44-1,7-2,7 (03:25)-0,4 (00:00)0,0 l/m²88%1,10,0 km/h (0 Bft) O-NO6,5 km/h (2 Bft) N-NO (04:14)
Isny, Am Dreifingerbach695 m05:45-2,6-2,6 (05:45)0,1 (00:00)0,0 l/m²93%1030,80,0 km/h (0 Bft) O-NO3,2 km/h (1 Bft) O-NO (01:55)
Isny, Weidachweg706 m05:45-3,2-3,4 (05:00)-0,4 (00:00)0,0 l/m²90%1033,30,0 km/h (0 Bft) N-NO6,4 km/h (2 Bft) O-SO (03:15)
Kappel-Grafenhausen163 m05:48-0,7-0,8 (04:57)4,1 (00:00)0,0 l/m²90%1029,90,0 km/h (0 Bft) NO4,8 km/h (1 Bft) NO (05:06)
Kirchdorf an der Iller551 m05:46-3,9-4,1 (05:23)-1,5 (00:00)0,0 l/m²92%1033,71,6 km/h (1 Bft) O6,5 km/h (2 Bft) S-SO (00:09)
Kißlegg-Staibshof709 m05:45-1,2-1,5 (04:55)1,3 (00:40)0,0 l/m²90%1031,80,0 km/h (0 Bft) NO0,0 km/h (0 Bft) NO (00:00)
Kressbronn398 m05:48-2,4-2,4 (05:34)0,8 (00:00)0,0 l/m²90%1030,91,6 km/h (1 Bft) N-NO4,8 km/h (1 Bft) N-NO (00:18)
Kristberg im Montafon (AT)1425 m05:44-- (-)0,8 (01:00)0,0 l/m²-1033,10,0 km/h (0 Bft) N0,0 km/h (0 Bft) N (01:00)
Laupheim500 m05:45-1,7-1,8 (05:30)1,6 (00:00)0,0 l/m²85%1031,40,0 km/h (0 Bft) N3,2 km/h (1 Bft) NO (02:55)
Leutkirch-Heggelbach670 m05:45-2,6-2,6 (05:40)-0,3 (00:00)0,0 l/m²91%1030,86,4 km/h (2 Bft) N-NO11,3 km/h (2 Bft) N-NO (04:20)
Lindau-Insel420 m05:45-0,2-0,2 (05:45)2,6 (16:40)0,0 l/m²86%1031,50,0 km/h (0 Bft) O-NO19,3 km/h (3 Bft) W (12:15)
Lindau-Stadt412 m05:45-1,0-1,0 (05:45)2,2 (16:25)0,0 l/m²88%1031,73,2 km/h (1 Bft) NO19,3 km/h (3 Bft) S-SW (13:05)
Maierhöfen im Allgäu733 m05:45-4,3-4,3 (05:45)-0,7 (00:00)0,0 l/m²92%1031,70,0 km/h (0 Bft) S4,8 km/h (1 Bft) NO (00:00)
Maselheim543 m05:45-4,0-4,2 (05:40)-2,0 (00:00)0,0 l/m²91%1032,40,0 km/h (0 Bft) S-SO4,8 km/h (1 Bft) N (00:05)
Maselheim-Sulmingen548 m05:45-4,1-4,2 (05:10)-1,6 (15:00)0,0 l/m²92%1033,70,0 km/h (0 Bft) O-NO32,2 km/h (5 Bft) O (13:20)
Mietingen-Baltringen528 m05:45-3,3-3,4 (05:25)0,6 (00:00)0,0 l/m²87%1033,40,0 km/h (0 Bft) O4,8 km/h (1 Bft) O (03:45)
Mindelheim-Apfeltrach620 m05:46-4,7-4,8 (05:45)-1,1 (00:00)0,0 l/m²89%1033,00,0 km/h (0 Bft) O-NO3,2 km/h (1 Bft) O-NO (01:19)
Neresheim552 m05:00-4,7-4,7 (05:00)-2,0 (00:00)0,0 l/m²93%1050,00,0 km/h (0 Bft) O0,0 km/h (0 Bft) O (05:00)
Neuhausen am Rheinfall (CH)428 m05:481,31,2 (05:32)4,1 (00:16)0,0 l/m²74%1029,91,0 km/h (0 Bft) N1,0 km/h (0 Bft) NW (00:00)
Neukirch570 m05:45-1,3-1,3 (05:30)1,5 (15:15)0,0 l/m²88%1031,61,6 km/h (1 Bft) N-NO25,7 km/h (4 Bft) N (13:35)
Ochsenhausen, Birkenstraße583 m05:48-4,2-4,2 (05:34)-1,4 (00:00)0,0 l/m²85%1035,7- (0 Bft) N- (0 Bft) N (-)
Ochsenhausen, Siechberg632 m05:39-3,1- (-)0,4 (01:00)0,0 l/m²87%-0,0 km/h (0 Bft) N-NO7,9 km/h (2 Bft) N-NO (01:00)
Ochsenhausen, Unt. Wiesen575 m05:45-4,1-4,3 (03:45)-1,8 (00:00)0,0 l/m²90%1033,70,0 km/h (0 Bft) S4,8 km/h (1 Bft) S (00:15)
Opfenbach-Göritz561 m05:45-3,7-3,8 (05:30)-0,5 (00:00)0,0 l/m²90%1029,71,4 km/h (1 Bft) NO6,5 km/h (2 Bft) NO (00:16)
Ostrach619 m05:45-3,6-3,6 (05:45)-1,1 (01:50)0,0 l/m²92%1030,50,0 km/h (0 Bft) NW6,4 km/h (2 Bft) W-NW (02:50)
Ravensburg, Goethestraße428 m05:45-0,1-0,1 (04:35)2,5 (00:00)0,0 l/m²86%1031,28,0 km/h (2 Bft) NO14,5 km/h (3 Bft) NO (00:30)
Ravensburg, Springerstraße441 m05:45-0,1-0,2 (05:20)2,0 (00:00)0,0 l/m²73%1030,10,0 km/h (0 Bft) W0,0 km/h (0 Bft) S (00:00)
Ravensburg-Oberzell422 m05:45-1,2-1,4 (05:12)2,6 (00:00)0,0 l/m²84%1032,54,7 km/h (1 Bft) NO14,5 km/h (3 Bft) NO (00:45)
Ravensburg-Weißenau426 m05:47-0,9-0,9 (05:38)1,9 (00:00)0,0 l/m²86%1032,04,8 km/h (1 Bft) N-NW9,7 km/h (2 Bft) N-NW (02:13)
Ravensburg-Wernsreute511 m05:45-1,1-1,1 (06:45)2,1 (15:15)0,0 l/m²87%1034,49,7 km/h (2 Bft) N-NW33,8 km/h (5 Bft) N (07:10)
Reichenbach an der Fils343 m05:45-2,4-2,4 (05:45)0,3 (00:00)0,0 l/m²86%1034,41,6 km/h (1 Bft) O4,8 km/h (1 Bft) O (02:45)
Reinstetten559 m05:45-4,9-4,9 (05:45)-2,2 (00:00)0,0 l/m²91%1032,90,0 km/h (0 Bft) NO4,8 km/h (1 Bft) NO (03:40)
Riedlingen530 m05:45-1,7-1,8 (04:05)0,2 (00:00)0,0 l/m²88%1032,20,0 km/h (0 Bft) NO6,4 km/h (2 Bft) NO (02:25)
Rißtissen489 m05:45-2,1-2,1 (05:30)1,2 (00:00)0,0 l/m²89%1029,70,0 km/h (0 Bft) O-NO0,0 km/h (0 Bft) O (00:00)
Rottweil-Hausen681 m05:47-3,2-3,4 (05:00)-0,1 (00:00)0,0 l/m²89%1033,01,4 km/h (1 Bft) N-NW6,5 km/h (2 Bft) N-NW (02:00)
Schemmerhofen520 m05:450,00,0 (00:00)0,0 (00:00)0,0 l/m²0%1028,80,0 km/h (0 Bft) N0,0 km/h (0 Bft) N (00:00)
Schwörstadt304 m05:470,40,4 (05:36)3,1 (00:37)0,0 l/m²85%1032,10,0 km/h (0 Bft) NO0,0 km/h (0 Bft) N (00:00)
Silbertal im Montafon (AT)884 m05:47-2,3-2,4 (04:28)-1,6 (00:00)0,0 l/m²83%1035,10,0 km/h (0 Bft) SO0,0 km/h (0 Bft) SO (00:00)
Tettnang466 m05:48-1,2-1,4 (05:34)3,2 (00:00)0,0 l/m²88%1031,50,0 km/h (0 Bft) N-NO14,4 km/h (3 Bft) O-SO (00:14)
Tettnang-Unterwolfertsweiler480 m05:46-1,2-1,2 (05:14)2,4 (15:24)0,0 l/m²89%1030,80,0 km/h (0 Bft) NO19,3 km/h (3 Bft) N-NO (15:32)
Tuttlingen648 m05:40-4,2-4,2 (05:40)-0,7 (00:00)0,0 l/m²88%1028,60,0 km/h (0 Bft) S-SO0,0 km/h (0 Bft) SO (00:00)
Tuttlingen, Möhringer-Vorstadt711 m05:45-4,0-4,2 (05:40)-0,4 (14:35)0,0 l/m²93%1031,90,0 km/h (0 Bft) S-SW24,1 km/h (4 Bft) N-NW (09:45)
Ummendorf547 m05:45-2,9-3,0 (05:30)-0,9 (00:00)0,0 l/m²71%1033,20,0 km/h (0 Bft) O-SO4,8 km/h (1 Bft) SO (01:10)
Ummendorf-Fischbach558 m05:45-3,3-3,6 (05:20)-1,9 (00:00)0,0 l/m²76%1033,23,2 km/h (1 Bft) O8,0 km/h (2 Bft) S (02:30)
Waldburg, Truchsessenweg707 m05:45-0,8-0,8 (05:30)1,6 (00:00)0,0 l/m²87%1031,00,0 km/h (0 Bft) N9,7 km/h (2 Bft) N (00:10)
Waltenhofen im Allgäu720 m05:45-4,9-5,2 (05:20)-1,9 (00:00)0,0 l/m²94%1031,40,0 km/h (0 Bft) SW14,5 km/h (3 Bft) SW (15:45)
Wangen, Hans-Schnitzer-Weg569 m05:45-1,5-1,5 (05:43)1,2 (00:00)0,0 l/m²84%1030,30,0 km/h (0 Bft) N8,0 km/h (2 Bft) N-NO (02:23)
Wangen, Südring548 m05:47-1,9-1,9 (05:40)0,3 (00:00)0,0 l/m²90%1030,90,0 km/h (0 Bft) NO6,5 km/h (2 Bft) NO (03:55)
Wangen-Leupolz612 m05:44-3,4-3,4 (05:42)-0,5 (00:02)0,0 l/m²89%1032,84,8 km/h (1 Bft) N-NO6,5 km/h (2 Bft) N (01:19)
Warthausen-Birkenhard581 m05:48-2,1-2,1 (05:46)0,7 (00:00)0,0 l/m²89%1032,48,6 km/h (2 Bft) N11,9 km/h (3 Bft) N-NO (02:42)
Weingarten500 m05:45-1,2-1,2 (05:05)1,3 (00:00)0,0 l/m²88%1031,50,0 km/h (0 Bft) NO0,0 km/h (0 Bft) N-NO (00:00)
Winterlingen785 m05:45-1,5-2,0 (00:00)0,0 (04:30)0,0 l/m²82%1031,12,5 km/h (1 Bft) N-NO5,8 km/h (2 Bft) NO (04:40)

niederschlagsdatenbank | info | login - erfassung

Sollten Sie Interesse haben, an der Niederschlagsdatenbank teilzunehmen, finden Sie > hier < weitere Informationen.
Datum: . . Kalender
Anmerkung:0,0 = nicht messbarer Niederschlag
 -  = kein Niederschlag
 k  = kumulierter Niederschlag

< 27.07.201329.07.2013 >


Niederschlagswerte vom 28.07.2013    -    derzeit 132 Stationen

Die Niederschlagswerte des gewählten Tages lassen sich durch Klicken auf das Datum sortieren.
Die Angaben sind in l/m².

Station25.07.26.07.27.07.28.07.29.07.30.07.31.07.Bemerkung 28.07.
Achstetten Hauptstraße-------
Aichstetten Ulmenstraße 7-------
Aichstetten-Nestbaum Nestbaum----8,0--
Albbruck Bahnhofstraße4,0--28,067,0--
Vorm. bewölkt Nachm. Sonne+33° zeitw. starker Südwest Wind Abends u [weiterlesen...]
Allmendingen Querqueviller Ring 62,5--4,016,8--
Regen
Amstetten-Reutti Gassenäcker 138,60,3-7,414,1--
Regen
Aulendorf Steinenbacher Weg 332,9--2,09,0--
Ablesung um 6:50 Uhr bei leichtem Regen
Regen
Aulendorf-Blönried Heuweg 320,0--2,69,0--
Regen
Bachhagel Meisenweg 3-------
Bad Buchau Hanfweiher 1-------
Bad Krozingen Im Unteren Stollen-------
Bad Saulgau Walserweg4,5--5,012,0--
Regen
Bad Saulgau-Hochberg Lampertsweiler Straße 125,5--4,510,0--
Bad Saulgau-Steinbronnen Forchenhain 6-------
Bad Schussenried Konradstraße2,4--1,09,5--
Regen
Bad Schussenried Lortzingstrasse2,5--2,09,0--
Regen
Bad Schussenried Klosterstraße3,5--2,28,5--
Regen
Bad Schussenried Theodor-Storm-Strasse-------
Bad Schussenried-Hopferbach Unterer Öschweg 16/1-------
Bad Schussenried-Lufthütte Hauptgasse 17-------
Bad Schussenried-Sattenbeuren Ortsstraße 7-------
Bad Schussenried-Schwaigfurt Schwaigfurt 24,0--2,08,3--
Bad Waldsee-Haisterkirch Zur Spitzenkapelle 11,1--0,711,8--
nach Tropennacht (+20,3°C) bei stürmischem Föhn bis 34,4°C heiß. [weiterlesen...]
Regen
Bad Wurzach-Seibranz Kimpflerhof 2 -------
Bad Wurzach-Ziegelbach Ziegelbach-Greut 5---0,88,2--
Regen
Baienfurt Untere Bergstrasse 7---2,017,0--
Regen
Balzheim Hinterm Liess 19-------
Berg-Kleintobel Kleintobel---2,021,7--
Regen
Biberach Amriswilstrasse4,2--0,514,4--
Wir hatten ja in Biberach und Umgebung mal wieder richtig Glück, mit [weiterlesen...]
Regen
Biberach Strölinweg-------
Biberach Erlenweg4,0--0,911,0--
Biberach Neue Heimat 5-------
Biberach Mittelbergstraße 9-------
Biberach Auf dem Lindele-------
Biberach-Bergerhausen Löcherstr.11,5--1,014,5--
Regen
Bierstetten Schloßbühl 62,8--3,810,8--
Blaubeuren-Pappelau Sotzenhauserstr.71,0--2,016,01,0-
Gewitter
Bonndorf Im Tännle 12-------
Bühlertal Wolfinstraße 16---10,0---
Regen Gewitter
Dornstadt-Tomerdingen Maienweg 91,5--9,911,90,0-
Dürnau Dorfäckerweg 5---4,513,0--
Regen
Eberhardzell Lilienweg1,5--1,712,20,1-
Ebersbach-Roßwälden Appenwiesen-------
Ehingen Rosenstraße7,5--4,514,0--
Regen
Ehingen Zanderstraße7,0--2,513,2--
Ehingen Schlaufenbühl8,3--5,916,2--
Regen
Ehingen Schillerstraße8,5--3,012,1--
Regen
Ehingen-Herbertshofen Tobelweg 9-------
Eislingen Albstraße 1255,50,00,233,732,9--
Hageldurchmesser bei Unwetter ca. 17Uhr30 bis zu 3 cm
Regen Hagel Gewitter
Erbach-Bach Hauptstraße 240,5--3,010,0--
Regen
Erlenmoos Haldenweg 150,3-1,11,211,3--
Regen
Füramoos Hungersberg 10,00,00,00,09,80,00,0
Gutenzell Kleinser Berg 16,0--0,211,0--
Regen
Gutenzell-Hürbel Bei der Sägmühle 1-------
Herbertingen Drosselweg1,0--6,018,0--
Zum Abend hin Bewölkungsverdichtung und aufkommender Wind! Regen dann [weiterlesen...]
Regen
Herbertingen Hirschstrasse---6,017,0--
Nach einem heißen Wochenende kam in der Nacht zum Montag der Regen.
Regen
Hochdorf-Schweinhausen Lindenweg 23,8--1,213,9--
Hohentengen-Bremen Bremer Halde 49,5--7,021,0--
Regen
Holzheim-Ellerbach Kirchstraße 3-------
Horgenzell-Ringgenweiler Ringgenweiler 620---2,116,10,0-
Hüttisheim Ulmer Weg 28,5--1,09,50,0-
Regen
Illerkirchberg Mahdauweg 200,9--0,89,1--
Das Gewitter am Abend brachte kaum Regen dafür kurz etwas Sturm. Der [weiterlesen...]
Regen Gewitter
Illerrieden-Wangen Am Muckenberg 12-------
Immenstaad Stockwiesen 10-------
Inzigkofen Butzenweg 11,00,00,012,529,5--
Regen
Isny Am Dreifingerbach 39----38,8--
Kanzach Anna von Russegg-Weg-------
Kirchberg Rosenstr. 74,0--0,19,2--
Regen
Langenau Wasserstr. 54-1-------
Langenau Narzissenweg 1-------
Langenau Edith-Stein-Straße-------
Langenenslingen Schattenweiler Str. 189,2-0,07,220,00,20,0
Regen
Leutkirch Unterer Auenweg 25---0,19,6--
Leutkirch Nachtigallenweg 28---0,07,0--
Leutkirch-Adrazhofen Bergstraße 20----7,00,2-
Luzern Schönbühlring-------
Merklingen Millergasse 9-------
Mietingen Seerosenweg 10-------
Mietingen-Walpertshofen Bussenweg 312,0--1,012,0--
Mittelbiberach-Reute Rindenmooser Straße 2-------
Moosburg Käserweg 50,0--4,512,7--
Hochsommerlich warm. Gegen Abend sah es nach Gewitter aus, es blieb je [weiterlesen...]
Münsingen-Bremelau Teichackerhof 1-------
Münsingen-Rietheim In der Lise 20-0,0-7,026,21,4-
Regen
Neresheim Alfred-Delp-Straße 816,3--4,312,8--
Regen Gewitter
Oberboihingen Friedhofstraße-------
Oberdischingen Normannenstraße 7-------
Ochsenhausen Ehrensberger Weg 50,8--0,413,5--
Öpfingen Hauptstraße 994,3--3,511,2--
Regen
Ostrach Uhlandweg0,5--5,523,0--
Regen
Ostrach Schillerstraße 19-------
Ostrach Denkmalweg -------
Pfaffenhofen Lerchenweg 13-------
Pfaffenhofen-Kadeltshofen Mühlbachstraße 40,0--7,06,01,0-
Pfullendorf Am Schweizersbild -------
Rangendingen Donaustraße 19--2,065,032,0--
ab 16.45 Uhr 10min. kräftiger Hagel mit 50 Liter Regen;viele Äpfel a [weiterlesen...]
Hagel Gewitter
Ravensburg Bleicherstraße---2,114,9--
Ravensburg Springerstraße    neu  -------
Ravensburg-Schmalegg St.-Magdalena-Ring 42---2,217,0--
Schwacher Regen erst am Morgen des 29.7.2013
Ravensburg-Wernsreute Wernsreute 25-------
Ravensburg-Weststadt Karl-Erb-Ring 142---2,219,8--
Höchsttemp. 36,6°
Regen
Regensburg Orleansstraße 3-------
Rheinfelden-Herten Eggbergstr. 10a-------
Riedhausen Blütenweg 130,2--3,512,7--
Temp. +15,6 °C / +36,1 °C, Windböen aus W bis 30,6 km/h
Regen
Riedlingen Berliner Str. 41-------
Riedlingen-Neufra Panoramaweg-------
Riedlingen-Neufra Riedlinger Strasse-------
Ringschnait Gustav-Reich-Strasse 20-------
Schelklingen-Gundershofen Schwarzer-Straße 14-------
Schemmerberg Drosselweg 92,0---14,0--
Schlier-Hintermoos Bergweg-------
Schwörstadt Schulstrasse 19-------
Seekirch Haldenberg 7-------
Sigmaringendorf Weingartenstraße 70,9-0,09,420,7--
Regen
Tuttlingen Möhringerstraße 110,7-0,715,742,2--
Windböen bis 60,8 km/h! Ab den Abendstunden aufkommende Schauer, welc [weiterlesen...]
Regen
Ulm Eberhardtstraße 75-------
Ulm-Eggingen Dorfstraße 36-------
Ummendorf Tulpenweg3,9--0,7-0,2-
Regen
Uttenweiler-Ahlen Seekircher Straße 81,2--2,813,0--
Regen
Vöhringen (Schwarzwald) Drosselweg 3-------
Wald-Hohenzollern Steckeler Höfe-------
Waldburg Kastanienweg11---3,028,0--
Wangen-Atzenberg Keplerweg 3-------
Wangen-Bergerhöhe Berg 2---0,814,8--
Warthausen An der Schloßhalde ---1,311,5--
Regen
Warthausen Schwabenwiesen 3,5--1,414,2--
Regen
Warthausen-Barabein Barabein 20-------
Warthausen-Oberhöfen Panoramaweg -------
Weingarten Laurastraße0,0--1,519,0--
Regen
Weingarten Hoyerstraße-------
Weingarten Marienstraße---2,015,50,0-
Regen
Wolfegg-Veesers Veesers 1---0,510,5--
Wolpertswende Aulendorfer Str. 170,0--1,89,0--
Regen

Stillgelegte Niederschlagsstationen    -    derzeit 52 Stationen

StationLetzte Meldung25.07.26.07.27.07.28.07.29.07.30.07.31.07.Bemerkung 28.07.
Allmannsweiler Eggatsweilerstr.2802.09.2014-------
Aulendorf-Rugetsweiler Erikaweg 325.07.20139,0------
Aulendorf-Zollenreute Imterstraße 1209.02.2019-------
Bad Bellingen Rheinstraße 7613.11.2019-------
Bad Saulgau Willi-Burth-Straße19.09.2011-------
Bad Saulgau Eichendorffweg28.03.2013-------
Bad Saulgau Seewattenstraße 12815.01.2014-------
Bad Saulgau-Lampertsweiler Valentinstr. 2618.02.20156,3--4,910,3--
Regen Gewitter
Bad Schussenried-Steinhausen Drosselgasse 4/126.09.2012-------
Bad Waldsee-Haisterkirch Hittelkofer Straße 102.07.2020-------
Bad Waldsee-Michelwinnanden Michelberg 531.12.20146,7--0,98,5--
schwül heiß, stürmischer Wind gegen 18.00 Uhr
Regen
Bad Waldsee-Osterhofen Hochwaldgasse 406.03.20151,0---5,0--
Bad Waldsee-Steinach Hofraingasse 1510.11.20133,0--1,59,0--
Bad Wurzach-Dietmanns Postweg 519.01.20193,5--1,08,0-0,0
Regen
Bad Wurzach-Haidgau Wengener Straße 507.10.2012-------
Bergatreute Bolanden 113.02.2012-------
Betzenweiler Offinger Straße 505.01.2017-11,1-4,312,5--
Starke Gewitterturbulenzen 18:00 bis 20:00 Uhr
Regen Gewitter
Burgrieden Am Nonnenberg 328.10.20131,4--0,47,2--
Burgrieden-Rot Schmiedgasse 518.09.2013----9,0--
Dettingen a. d. Iller Schleifweg 431.10.20191,5--0,08,5--
Eberhardzell Schillerstraße05.07.2010-------
Ehingen Am Elzengraben17.06.2016-------
Gammertingen Schillerstraße 2216.01.201610,00,0-10,830,4--
Griesingen Blumenstraße 906.10.201510,5--2,713,2--
Regen
Günzburg Erlenbadweg 34 1/231.12.2010-------
Hoßkirch Kirchstraße 805.01.2018---4,814,6--
Regen
Ingoldingen-Grodt Ingoldinger Weg 1919.11.201611,0--1,011,0--
Regen
Kisslegg Kirchmoosstraße02.05.2011-------
Krauchenwies-Hausen Rosenrain 123.11.201314,8--8,424,7--
Kressbronn Irisstraße 410.03.2010-------
Kreuzthal-Steinberg-Alpe Im Kreuzbachthal 8504.08.2020----16,6--
Leutkirch-Ottmannshofen Spitalriedstraße 527.07.2012-------
Leutkirch-Rotis Rotis 5/208.05.2016-------
Leutkirch-Wuchzenhofen Untere Kirchstraße 18/119.09.2016----9,5--
Mietingen Hangweg 1530.12.20172,0--0,514,00,1-
Gewitter
Mössingen-Bästenhardt Weissdornweg 721.07.2014-------
Ostrach Heiligenberger Straße19.08.2013---5,818,2--
Regen
Pfullendorf Ringstraße 18.03.2012-------
Ravensburg Olgastraße30.10.2016---2,218,5--
Regen
Seltmans Amselweg 2209.04.2013-------
Stuttgart-Bad Cannstatt Beuthener Str. 6703.02.2013-------
Stuttgart-Möhringen Glashütter Weg 1023.04.2017-6,0-7,024,554,0-
Bewölkt+Sonne,+19°C, 88%->+31°C,1009hPa.,->SW
Stuttgart-Rohr Hirschsprung 307.11.2012-------
Talheim Im Schecken 2121.08.20160,00,0-0,739,8--
Nachts leicht bewölkter Himmel bei Temperaturen um 24 C° und leichte [weiterlesen...]
Regen Gewitter
Tannheim Eggmannstr. 42 22.10.20170,0--0,08,70,3-
>Tmin +17,1<>Tmax +37,5°C<
Regen
Tettnang-Ramsbach Jahnstr. 24/126.03.2011-------
Tuttlingen-Möhringen Belchenstraße01.01.20150,0-0,019,541,50,0-
Regen
Ummendorf Bergstraße23.10.20173,5--1,011,5--
Regen
Ummendorf Friedrich-Schiller-Str.19.01.2020-------
Vogt Mühlwies 1822.05.2015-------
Weingarten Bischof-Sproll-Straße30.06.2011-------
Wilhelmsdorf Riedhauser Straße 28.10.2012-------
Wilhelmsdorf Seefeld20.08.2013---12,0---
Regen
Wurmlingen An der Steig 3014.10.2016-------
Die Niederschlagswerte des gewählten Tages lassen sich durch Klicken auf das Datum sortieren.
Die Angaben sind in l/m².

Wetterbeobachtungen Legende:

  • Regen
  • Nieselregen
  • Schneeregen
  • Schnee
  • Graupel
  • Eiskörner
  • Hagel
  • Bodennebel
  • Gewitter
  • Nebelnässe
  • Schneegriesel

Grafische Darstellung der Tagesniederschläge vom 28.07.2013

< 27.07.201329.07.2013 >Monats- und Jahresniederschlag


 
wetterstationen
wetterstationen
- derzeit 101 Stationen
niederschlagsdatenbank
wetterstationen
- kartographische Darstellung
niederschlagsdatenbank
niederschlagsstationen
- derzeit 132 Stationen
niederschlagsdatenbank
niederschlagsstationen
- kartographische Darstellung
 
 
So. 7.30 Uhr - Mo. 7.30 Uhr (MEZ)
1.Ostrach
Denkmalweg
0,0 l/m²
 
  treffpunkt & service
--- Anzeigen --------------------------------
zugriffe:
insgesamt: 51.669.549
aktueller monat: 388
heute: 388
momentan online: 19
 
 
monatshöchstwert: 703.589
vorheriger monat: 490.970
gestern: 7.623
tageshöchstwert: 60.571
 
wetterwarte süd
 
konradstraße 3
info@wetterwarte-sued.com
roland roth
 
88427 bad schussenried